Lid_Strength_Index
14 16 17 14 15 16 17 18 19 15 14 16 16 15 14 12 12 12 12 12 11 10 8 8 9 11 10 10 10 10 11 11 11 11 12 12 12 12 12 12 12 13 13 14
16 17 13 14 15 15 16 17 17 15 13 16 16 16 14 13 12 12 11 11 11 11 10 9 10 11 11 10 10 10 11 11 11 10 11 11 11 12 12 12 13 13 14 14
16 15 13 15 16 16 17 18 16 17 16 16 17 18 17 14 13 12 11 10 10 11 10 9 11 12 12 12 11 10 10 11 11 10 11 15 15 15 15 15 14 14 14 14
16 14 14 16 16 15 17 15 15 16 18 20 17 20 18 15 14 14 12 12 12 12 12 11 10 12 13 12 11 11 11 11 11 11 12 12 12 13 13 13 13 14 14 14
16 16 16 16 15 15 16 15 16 17 19 20 20 20 18 17 16 14 13 13 12 12 12 12 11 11 11 12 12 12 12 12 12 12 12 12 12 12 13 13 14 14 15 15
16 15 15 15 15 14 15 16 17 19 19 22 19 19 19 18 16 15 14 13 12 12 12 12 12 12 12 12 13 13 12 13 13 13 12 13 12 13 14 14 14 15 15 15
18 16 15 15 17 16 16 18 21 22 23 20 19 20 16 16 15 14 12 12 12 12 12 12 12 12 12 13 13 13 13 13 13 13 13 13 12 13 14 14 14 15 15 16
19 18 16 15 15 16 17 17 20 24 22 18 20 21 16 14 14 13 13 13 12 12 12 13 13 13 13 13 13 14 14 14 14 14 13 13 13 13 13 14 13 14 15 15
19 19 16 16 15 15 18 18 15 18 23 23 18 17 14 13 14 15 14 13 12 12 12 12 12 12 12 12 13 14 14 14 14 14 14 14 13 13 14 14 14 14 14 14
15 16 15 16 15 16 15 15 18 18 20 21 19 18 17 15 14 13 13 12 11 11 10 9 11 12 12 12 13 14 14 14 14 14 13 14 14 14 14 15 15 14 14 15
13 13 15 15 17 16 16 16 16 15 16 19 20 16 13 13 13 13 13 11 11 11 10 11 12 12 12 13 14 14 14 14 14 14 14 14 14 14 15 15 14 14 14 15
11 13 16 15 12 12 12 12 12 16 17 16 16 16 11 10 10 10 10 8 10 11 11 11 11 12 12 12 12 13 13 14 14 14 15 14 14 15 15 14 14 14 14 15
10 14 18 17 15 14 14 13 11 11 12 17 19 16 9 9 9 8 10 10 11 12 12 12 11 13 13 13 13 12 12 13 14 14 15 16 16 15 14 13 14 14 14 16
8 12 15 18 15 12 14 13 12 13 17 17 16 15 12 10 10 13 12 12 12 12 12 12 12 12 12 12 13 13 12 12 12 14 15 15 15 15 14 14 15 15 14 15
10 15 13 13 13 13 14 14 14 15 15 17 15 15 12 16 15 15 13 13 14 14 13 13 12 12 12 12 12 12 12 13 13 14 13 14 14 14 14 14 14 15 16 16
11 16 14 16 14 15 17 16 17 16 16 15 14 14 15 16 15 14 14 15 15 14 14 13 12 12 13 13 12 12 12 13 14 15 15 14 14 14 15 14 15 16 16 16
14 17 20 19 15 17 20 17 16 16 14 15 16 17 15 16 16 14 14 13 15 14 14 13 12 13 13 12 12 12 13 13 13 14 15 14 13 13 14 15 15 16 16 16
15 18 19 22 25 28 17 13 15 16 16 15 15 14 14 14 14 13 11 13 13 13 12 12 12 13 13 12 12 11 12 13 14 14 14 14 14 13 15 16 16 17 16 17
13 15 24 25 27 18 15 15 17 18 18 16 16 13 12 12 12 13 11 11 11 12 12 11 12 13 13 13 13 13 13 13 14 14 15 15 16 15 16 17 17 18 17 17
14 13 16 21 22 27 18 15 13 13 21 15 14 15 14 13 18 16 11 10 11 11 11 12 13 14 14 13 13 14 14 13 14 13 15 16 17 17 17 16 18 18 17 17
26 28 26 28 28 22 14 14 13 23 19 15 12 14 13 16 15 12 12 12 12 12 12 12 13 14 14 14 14 15 15 15 15 15 15 15 17 17 16 17 17 17 17 19
20 26 28 29 31 26 13 14 18 14 12 12 12 12 13 12 12 12 12 13 13 13 13 13 14 14 14 14 15 16 17 17 17 17 15 15 16 17 17 17 17 17 18 19
20 18 22 20 20 13 13 13 11 11 12 11 12 11 11 12 13 12 13 13 13 13 13 13 15 15 14 14 15 18 17 17 17 18 18 16 15 17 17 17 18 18 19 20
15 13 16 16 14 12 11 10 10 10 10 9 10 11 11 13 12 13 13 12 13 13 14 14 15 16 17 16 16 17 18 18 19 21 20 18 16 16 17 17 18 18 19 18
13 14 15 15 13 11 10 10 9 8 9 10 10 11 11 12 13 12 12 13 13 13 14 14 15 16 18 18 18 19 19 19 20 21 21 20 18 16 16 18 18 18 17 17
12 13 14 15 10 10 10 8 9 10 10 11 11 12 11 11 11 12 13 13 13 14 14 15 16 17 18 19 20 20 21 22 22 22 22 21 20 19 16 17 17 14 14 14